TIANLIAN 1-04

Last updated on Mon Oct 14 2024 00:02:40 GMT+0000 (Coordinated Universal Time)

1 41869U 16072A 24287.52757569 .00000031 00000+0 00000+0 0 9995 2 41869 0.1207 94.6488 0036457 68.3280 226.4192 1.00275681 29176
UTC large
Height (km)
Speed (km/s)
/
Latitude / Longitude
Inclination (degrees)
Orbital Period (minutes)
Azimuth
Elevation
Range (km)
Doppler Factor

Next 0 passes for location: London (51.5072 / 0.1276)

Sorry there are no passes over London.